Time,TemperatureF,DewpointF,PressureIn,WindDirection,WindDirectionDegrees,WindSpeedMPH,WindSpeedGustMPH,Humidity,HourlyPrecipIn,Conditions,Clouds,dailyrainin,SoftwareType,DateUTC
2013-05-18 00:04:00,63.8,62.9,30.01,WSW,240,1.0,2.0,97,0.10,,,0.00,Wunderground v.1.15,2013-05-18 05:04:00,
2013-05-18 00:10:00,63.8,62.9,30.01,WSW,247,0.0,0.0,97,0.06,,,0.00,Wunderground v.1.15,2013-05-18 05:10:00,
2013-05-18 00:15:00,63.8,62.9,30.00,East,93,1.0,2.0,97,0.04,,,0.00,Wunderground v.1.15,2013-05-18 05:15:00,
2013-05-18 00:20:00,63.8,62.9,30.01,West,268,1.0,1.0,97,0.00,,,0.00,Wunderground v.1.15,2013-05-18 05:20:00,
2013-05-18 00:26:00,63.8,62.9,30.00,NE,55,1.0,1.0,97,0.00,,,0.00,Wunderground v.1.15,2013-05-18 05:26:00,
2013-05-18 00:31:00,63.9,63.0,30.00,SE,145,0.0,0.0,97,0.00,,,0.00,Wunderground v.1.15,2013-05-18 05:31:00,
2013-05-18 00:36:00,63.9,63.0,30.00,SSE,163,0.0,0.0,97,0.00,,,0.00,Wunderground v.1.15,2013-05-18 05:36:00,
2013-05-18 00:42:00,63.8,62.9,30.00,SSE,162,0.0,0.0,97,0.00,,,0.00,Wunderground v.1.15,2013-05-18 05:42:00,
2013-05-18 00:47:00,63.9,63.0,29.99,SSE,148,0.0,1.0,97,0.00,,,0.00,Wunderground v.1.15,2013-05-18 05:47:00,
2013-05-18 00:53:00,64.0,63.1,29.99,ESE,103,0.0,2.0,97,0.00,,,0.00,Wunderground v.1.15,2013-05-18 05:53:00,
2013-05-18 00:59:00,63.9,63.0,29.99,ESE,113,1.0,2.0,97,0.00,,,0.00,Wunderground v.1.15,2013-05-18 05:59:00,
2013-05-18 01:04:00,63.9,63.0,29.99,ESE,112,0.0,1.0,97,0.00,,,0.00,Wunderground v.1.15,2013-05-18 06:04:00,
2013-05-18 01:10:00,63.9,63.0,29.99,WNW,286,1.0,1.0,97,0.00,,,0.00,Wunderground v.1.15,2013-05-18 06:10:00,
2013-05-18 01:16:00,63.8,62.9,29.99,NNE,13,0.0,1.0,97,0.00,,,0.01,Wunderground v.1.15,2013-05-18 06:16:00,
2013-05-18 01:22:00,63.9,63.0,29.99,NE,50,0.0,1.0,97,0.00,,,0.01,Wunderground v.1.15,2013-05-18 06:22:00,
2013-05-18 01:27:00,63.9,63.0,29.98,NE,50,0.0,1.0,97,0.00,,,0.01,Wunderground v.1.15,2013-05-18 06:27:00,
2013-05-18 01:33:00,63.9,63.0,29.98,NE,50,0.0,0.0,97,0.00,,,0.01,Wunderground v.1.15,2013-05-18 06:33:00,
2013-05-18 01:38:00,63.9,63.0,29.98,NE,49,0.0,0.0,97,0.00,,,0.01,Wunderground v.1.15,2013-05-18 06:38:00,
2013-05-18 01:44:00,63.9,63.0,29.98,NE,49,0.0,0.0,97,0.00,,,0.01,Wunderground v.1.15,2013-05-18 06:44:00,
2013-05-18 01:49:00,63.9,63.0,29.98,NE,47,0.0,0.0,97,0.00,,,0.01,Wunderground v.1.15,2013-05-18 06:49:00,
2013-05-18 01:55:00,63.9,63.0,29.98,NE,47,0.0,0.0,97,0.00,,,0.02,Wunderground v.1.15,2013-05-18 06:55:00,
2013-05-18 02:00:00,63.9,63.0,29.98,NE,47,0.0,0.0,97,0.55,,,0.08,Wunderground v.1.15,2013-05-18 07:00:00,
2013-05-18 02:06:00,63.9,63.0,29.98,NE,46,0.0,0.0,97,0.10,,,0.08,Wunderground v.1.15,2013-05-18 07:06:00,
2013-05-18 02:11:00,63.9,63.0,29.98,NE,46,0.0,0.0,97,0.09,,,0.09,Wunderground v.1.15,2013-05-18 07:11:00,
2013-05-18 02:17:00,63.9,63.0,29.98,NE,46,0.0,0.0,97,0.06,,,0.09,Wunderground v.1.15,2013-05-18 07:17:00,
2013-05-18 02:22:00,63.9,63.0,29.98,NE,46,0.0,0.0,97,0.04,,,0.09,Wunderground v.1.15,2013-05-18 07:22:00,
2013-05-18 02:27:00,63.9,63.0,29.98,NE,48,0.0,0.0,97,0.00,,,0.09,Wunderground v.1.15,2013-05-18 07:27:00,
2013-05-18 02:33:00,63.9,63.0,29.98,NE,48,0.0,0.0,97,0.00,,,0.09,Wunderground v.1.15,2013-05-18 07:33:00,
2013-05-18 02:38:00,63.9,63.0,29.98,NE,48,0.0,0.0,97,0.00,,,0.09,Wunderground v.1.15,2013-05-18 07:38:00,
2013-05-18 02:44:00,63.9,63.0,29.97,NE,48,0.0,0.0,97,0.00,,,0.09,Wunderground v.1.15,2013-05-18 07:44:00,
2013-05-18 02:49:00,64.0,63.1,29.97,NE,48,0.0,0.0,97,0.00,,,0.09,Wunderground v.1.15,2013-05-18 07:49:00,
2013-05-18 02:54:00,63.9,63.0,29.97,NE,48,0.0,0.0,97,0.00,,,0.09,Wunderground v.1.15,2013-05-18 07:54:00,
2013-05-18 03:00:00,63.9,63.0,29.97,NNW,345,0.0,0.0,97,0.00,,,0.09,Wunderground v.1.15,2013-05-18 08:00:00,
2013-05-18 03:05:00,63.9,63.0,29.97,NNW,345,0.0,0.0,97,0.00,,,0.09,Wunderground v.1.15,2013-05-18 08:05:00,
2013-05-18 03:11:00,63.8,62.9,29.97,NNW,345,0.0,0.0,97,0.00,,,0.09,Wunderground v.1.15,2013-05-18 08:11:00,
2013-05-18 03:16:00,63.8,62.9,29.97,NNW,345,0.0,0.0,97,0.00,,,0.09,Wunderground v.1.15,2013-05-18 08:16:00,
2013-05-18 03:22:00,63.9,63.0,29.97,NNW,345,0.0,0.0,97,0.00,,,0.09,Wunderground v.1.15,2013-05-18 08:22:00,
2013-05-18 03:27:00,63.9,63.0,29.97,East,86,0.0,0.0,97,0.00,,,0.09,Wunderground v.1.15,2013-05-18 08:27:00,
2013-05-18 03:33:00,63.9,63.0,29.97,ENE,62,1.0,1.0,97,0.00,,,0.09,Wunderground v.1.15,2013-05-18 08:33:00,
2013-05-18 03:38:00,64.0,63.4,29.97,ENE,62,1.0,1.0,98,0.00,,,0.09,Wunderground v.1.15,2013-05-18 08:38:00,
2013-05-18 03:43:00,64.1,63.2,29.97,ENE,60,0.0,0.0,97,0.00,,,0.09,Wunderground v.1.15,2013-05-18 08:43:00,
2013-05-18 03:49:00,64.1,63.2,29.97,ENE,60,0.0,1.0,97,0.00,,,0.09,Wunderground v.1.15,2013-05-18 08:49:00,
2013-05-18 03:54:00,64.2,63.3,29.97,ENE,58,0.0,0.0,97,0.00,,,0.09,Wunderground v.1.15,2013-05-18 08:54:00,
2013-05-18 04:00:00,64.2,63.3,29.97,ENE,58,0.0,0.0,97,0.00,,,0.09,Wunderground v.1.15,2013-05-18 09:00:00,
2013-05-18 04:05:00,64.3,63.4,29.97,ENE,58,0.0,0.0,97,0.00,,,0.09,Wunderground v.1.15,2013-05-18 09:05:00,
2013-05-18 04:10:00,64.3,63.4,29.97,ENE,64,0.0,1.0,97,0.00,,,0.09,Wunderground v.1.15,2013-05-18 09:10:00,
2013-05-18 04:16:00,64.4,63.5,29.97,ENE,62,0.0,1.0,97,0.00,,,0.09,Wunderground v.1.15,2013-05-18 09:16:00,
2013-05-18 04:21:00,64.4,63.5,29.97,ENE,62,0.0,0.0,97,0.00,,,0.09,Wunderground v.1.15,2013-05-18 09:21:00,
2013-05-18 04:26:00,64.5,63.6,29.97,ENE,62,0.0,0.0,97,0.00,,,0.09,Wunderground v.1.15,2013-05-18 09:26:00,
2013-05-18 04:32:00,64.5,63.6,29.97,ENE,62,0.0,0.0,97,0.00,,,0.09,Wunderground v.1.15,2013-05-18 09:32:00,
2013-05-18 04:37:00,64.5,63.6,29.98,ENE,62,0.0,0.0,97,0.00,,,0.09,Wunderground v.1.15,2013-05-18 09:37:00,
2013-05-18 04:43:00,64.5,63.6,29.98,ENE,62,0.0,0.0,97,0.00,,,0.09,Wunderground v.1.15,2013-05-18 09:43:00,
2013-05-18 04:48:00,64.4,63.5,29.98,ENE,62,0.0,0.0,97,0.00,,,0.09,Wunderground v.1.15,2013-05-18 09:48:00,
2013-05-18 04:54:00,64.5,63.6,29.98,ENE,62,0.0,0.0,97,0.00,,,0.09,Wunderground v.1.15,2013-05-18 09:54:00,
2013-05-18 04:59:00,64.5,63.6,29.98,ENE,62,0.0,0.0,97,0.00,,,0.09,Wunderground v.1.15,2013-05-18 09:59:00,
2013-05-18 05:05:00,64.5,63.6,29.98,ENE,62,0.0,0.0,97,0.00,,,0.09,Wunderground v.1.15,2013-05-18 10:05:00,
2013-05-18 05:10:00,64.5,63.6,29.99,ENE,62,0.0,0.0,97,0.00,,,0.09,Wunderground v.1.15,2013-05-18 10:10:00,
2013-05-18 05:15:00,64.5,63.6,29.99,ENE,62,0.0,0.0,97,0.00,,,0.09,Wunderground v.1.15,2013-05-18 10:15:00,
2013-05-18 05:21:00,64.4,63.5,29.98,ENE,62,0.0,0.0,97,0.00,,,0.09,Wunderground v.1.15,2013-05-18 10:21:00,
2013-05-18 05:26:00,64.4,63.5,29.98,ENE,62,0.0,0.0,97,0.00,,,0.10,Wunderground v.1.15,2013-05-18 10:26:00,
2013-05-18 05:32:00,64.3,63.4,29.98,ENE,62,0.0,0.0,97,0.00,,,0.10,Wunderground v.1.15,2013-05-18 10:32:00,
2013-05-18 05:37:00,64.3,63.4,29.99,ENE,62,0.0,0.0,97,0.00,,,0.10,Wunderground v.1.15,2013-05-18 10:37:00,
2013-05-18 05:43:00,64.3,63.4,29.99,ENE,62,0.0,0.0,97,0.00,,,0.10,Wunderground v.1.15,2013-05-18 10:43:00,
2013-05-18 05:49:00,64.3,63.4,29.99,ENE,62,0.0,0.0,97,0.00,,,0.10,Wunderground v.1.15,2013-05-18 10:49:00,
2013-05-18 05:54:00,64.5,63.6,29.99,ENE,62,0.0,1.0,97,0.00,,,0.10,Wunderground v.1.15,2013-05-18 10:54:00,
2013-05-18 06:00:00,64.6,63.7,29.99,ENE,62,0.0,0.0,97,0.00,,,0.10,Wunderground v.1.15,2013-05-18 11:00:00,
2013-05-18 06:05:00,64.7,63.8,29.99,ENE,62,0.0,0.0,97,0.00,,,0.10,Wunderground v.1.15,2013-05-18 11:05:00,
2013-05-18 06:10:00,64.8,63.9,29.99,North,9,0.0,1.0,97,0.00,,,0.11,Wunderground v.1.15,2013-05-18 11:10:00,
2013-05-18 06:16:00,64.8,63.9,29.99,North,10,0.0,1.0,97,0.00,,,0.11,Wunderground v.1.15,2013-05-18 11:16:00,
2013-05-18 06:21:00,64.9,64.0,29.99,North,9,0.0,0.0,97,0.00,,,0.11,Wunderground v.1.15,2013-05-18 11:21:00,
2013-05-18 06:26:00,65.0,64.1,29.99,North,9,0.0,0.0,97,0.00,,,0.11,Wunderground v.1.15,2013-05-18 11:26:00,
2013-05-18 06:32:00,65.0,64.1,29.99,North,9,0.0,0.0,97,0.00,,,0.11,Wunderground v.1.15,2013-05-18 11:32:00,
2013-05-18 06:37:00,65.0,64.1,30.00,North,9,0.0,0.0,97,0.00,,,0.11,Wunderground v.1.15,2013-05-18 11:37:00,
2013-05-18 06:43:00,64.9,64.0,30.00,WNW,300,0.0,1.0,97,0.00,,,0.11,Wunderground v.1.15,2013-05-18 11:43:00,
2013-05-18 06:48:00,64.9,64.0,30.00,WNW,291,0.0,1.0,97,0.00,,,0.11,Wunderground v.1.15,2013-05-18 11:48:00,
2013-05-18 06:54:00,64.8,63.9,30.00,NNW,341,0.0,0.0,97,0.00,,,0.11,Wunderground v.1.15,2013-05-18 11:54:00,
2013-05-18 06:59:00,64.7,63.8,30.00,NNW,341,0.0,0.0,97,0.00,,,0.11,Wunderground v.1.15,2013-05-18 11:59:00,
2013-05-18 07:05:00,64.7,63.8,30.00,NW,311,0.0,1.0,97,0.00,,,0.11,Wunderground v.1.15,2013-05-18 12:05:00,
2013-05-18 07:10:00,64.7,63.8,30.00,NW,314,0.0,0.0,97,0.00,,,0.11,Wunderground v.1.15,2013-05-18 12:10:00,
2013-05-18 07:15:00,64.7,63.8,30.01,NW,313,0.0,0.0,97,0.00,,,0.11,Wunderground v.1.15,2013-05-18 12:15:00,
2013-05-18 07:21:00,64.8,63.9,30.01,West,273,0.0,1.0,97,0.00,,,0.11,Wunderground v.1.15,2013-05-18 12:21:00,
2013-05-18 07:26:00,64.9,64.0,30.01,North,352,0.0,1.0,97,0.00,,,0.11,Wunderground v.1.15,2013-05-18 12:26:00,
2013-05-18 07:32:00,65.0,64.4,30.01,North,358,0.0,0.0,98,0.00,,,0.11,Wunderground v.1.15,2013-05-18 12:32:00,
2013-05-18 07:37:00,65.0,64.4,30.01,North,349,0.0,1.0,98,0.00,,,0.11,Wunderground v.1.15,2013-05-18 12:37:00,
2013-05-18 07:42:00,65.1,64.5,30.01,NNW,348,0.0,1.0,98,0.00,,,0.11,Wunderground v.1.15,2013-05-18 12:42:00,
2013-05-18 07:48:00,65.3,64.7,30.01,WNW,293,0.0,1.0,98,0.00,,,0.11,Wunderground v.1.15,2013-05-18 12:48:00,
2013-05-18 07:53:00,65.2,64.3,30.01,WNW,294,0.0,0.0,97,0.00,,,0.11,Wunderground v.1.15,2013-05-18 12:53:00,
2013-05-18 07:59:00,65.2,64.3,30.01,WNW,293,0.0,0.0,97,0.00,,,0.11,Wunderground v.1.15,2013-05-18 12:59:00,
2013-05-18 08:04:00,65.2,64.3,30.02,WNW,293,0.0,0.0,97,0.00,,,0.11,Wunderground v.1.15,2013-05-18 13:04:00,
2013-05-18 08:10:00,65.4,64.8,30.01,WNW,293,0.0,0.0,98,0.00,,,0.11,Wunderground v.1.15,2013-05-18 13:10:00,
2013-05-18 08:15:00,65.6,65.0,30.01,WNW,293,0.0,1.0,98,0.00,,,0.11,Wunderground v.1.15,2013-05-18 13:15:00,
2013-05-18 08:21:00,65.7,65.1,30.01,WNW,293,0.0,0.0,98,0.00,,,0.11,Wunderground v.1.15,2013-05-18 13:21:00,
2013-05-18 08:26:00,65.8,64.9,30.02,WNW,294,0.0,0.0,97,0.00,,,0.11,Wunderground v.1.15,2013-05-18 13:26:00,
2013-05-18 08:31:00,65.9,65.0,30.01,WNW,289,0.0,0.0,97,0.00,,,0.11,Wunderground v.1.15,2013-05-18 13:31:00,
2013-05-18 08:37:00,66.0,65.1,30.01,WNW,293,0.0,1.0,97,0.00,,,0.11,Wunderground v.1.15,2013-05-18 13:37:00,
2013-05-18 08:43:00,66.3,65.4,30.02,WNW,294,0.0,0.0,97,0.00,,,0.11,Wunderground v.1.15,2013-05-18 13:43:00,
2013-05-18 08:48:00,66.4,65.5,30.01,NW,317,0.0,2.0,97,0.00,,,0.11,Wunderground v.1.15,2013-05-18 13:48:00,
2013-05-18 08:53:00,66.6,65.7,30.01,North,2,0.0,2.0,97,0.00,,,0.11,Wunderground v.1.15,2013-05-18 13:53:00,
2013-05-18 08:59:00,66.7,65.8,30.01,North,10,0.0,2.0,97,0.00,,,0.11,Wunderground v.1.15,2013-05-18 13:59:00,
2013-05-18 09:04:00,67.0,66.1,30.01,North,10,0.0,0.0,97,0.00,,,0.11,Wunderground v.1.15,2013-05-18 14:04:00,
2013-05-18 09:10:00,67.4,66.5,30.01,North,9,0.0,1.0,97,0.00,,,0.11,Wunderground v.1.15,2013-05-18 14:10:00,
2013-05-18 09:16:00,67.6,66.7,30.01,NNE,26,1.0,3.0,97,0.00,,,0.11,Wunderground v.1.15,2013-05-18 14:16:00,
2013-05-18 09:21:00,67.6,66.4,30.01,WNW,299,1.0,3.0,96,0.00,,,0.11,Wunderground v.1.15,2013-05-18 14:21:00,
2013-05-18 09:26:00,67.9,66.7,30.01,WNW,295,1.0,3.0,96,0.00,,,0.11,Wunderground v.1.15,2013-05-18 14:26:00,
2013-05-18 09:32:00,67.8,66.3,30.01,WNW,296,1.0,2.0,95,0.00,,,0.11,Wunderground v.1.15,2013-05-18 14:32:00,
2013-05-18 09:37:00,67.9,66.4,30.01,NNE,17,1.0,2.0,95,0.00,,,0.11,Wunderground v.1.15,2013-05-18 14:37:00,
2013-05-18 09:43:00,68.1,66.6,30.01,ENE,57,1.0,2.0,95,0.00,,,0.11,Wunderground v.1.15,2013-05-18 14:43:00,
2013-05-18 09:48:00,68.2,66.4,30.01,ENE,65,1.0,2.0,94,0.00,,,0.11,Wunderground v.1.15,2013-05-18 14:48:00,
2013-05-18 09:54:00,68.3,66.5,30.01,NNE,19,1.0,2.0,94,0.00,,,0.11,Wunderground v.1.15,2013-05-18 14:54:00,
2013-05-18 09:59:00,68.4,66.6,30.01,NNE,20,1.0,3.0,94,0.00,,,0.11,Wunderground v.1.15,2013-05-18 14:59:00,
2013-05-18 10:05:00,68.6,66.8,30.01,ENE,67,1.0,1.0,94,0.00,,,0.11,Wunderground v.1.15,2013-05-18 15:05:00,
2013-05-18 10:10:00,68.8,66.7,30.01,NE,46,1.0,1.0,93,0.00,,,0.11,Wunderground v.1.15,2013-05-18 15:10:00,
2013-05-18 10:15:00,69.1,67.0,30.01,NE,53,1.0,2.0,93,0.00,,,0.11,Wunderground v.1.15,2013-05-18 15:15:00,
2013-05-18 10:21:00,69.6,67.5,30.01,NNW,337,1.0,1.0,93,0.00,,,0.11,Wunderground v.1.15,2013-05-18 15:21:00,
2013-05-18 10:26:00,70.0,67.6,30.01,North,353,1.0,3.0,92,0.00,,,0.11,Wunderground v.1.15,2013-05-18 15:26:00,
2013-05-18 10:31:00,70.3,67.9,30.01,North,3,1.0,1.0,92,0.00,,,0.11,Wunderground v.1.15,2013-05-18 15:31:00,
2013-05-18 10:37:00,70.5,68.1,30.01,NNW,334,0.0,1.0,92,0.00,,,0.11,Wunderground v.1.15,2013-05-18 15:37:00,
2013-05-18 10:42:00,70.4,68.0,30.01,North,9,0.0,1.0,92,0.00,,,0.11,Wunderground v.1.15,2013-05-18 15:42:00,
2013-05-18 10:48:00,70.3,67.5,30.01,North,359,0.0,2.0,91,0.00,,,0.11,Wunderground v.1.15,2013-05-18 15:48:00,
2013-05-18 10:53:00,70.5,68.1,30.01,ENE,57,1.0,3.0,92,0.00,,,0.11,Wunderground v.1.15,2013-05-18 15:53:00,
2013-05-18 10:58:00,70.5,67.7,30.01,NE,54,1.0,3.0,91,0.00,,,0.11,Wunderground v.1.15,2013-05-18 15:58:00,
2013-05-18 11:04:00,70.4,67.6,30.01,NNW,341,1.0,2.0,91,0.00,,,0.11,Wunderground v.1.15,2013-05-18 16:04:00,
2013-05-18 11:09:00,70.8,68.0,30.01,NNE,17,1.0,1.0,91,0.00,,,0.11,Wunderground v.1.15,2013-05-18 16:09:00,
2013-05-18 11:15:00,71.1,68.0,30.01,NNW,344,1.0,2.0,90,0.00,,,0.11,Wunderground v.1.15,2013-05-18 16:15:00,
2013-05-18 11:21:00,71.5,68.4,30.01,NNE,21,2.0,2.0,90,0.00,,,0.11,Wunderground v.1.15,2013-05-18 16:21:00,
2013-05-18 11:27:00,72.0,68.9,30.01,North,351,1.0,2.0,90,0.00,,,0.11,Wunderground v.1.15,2013-05-18 16:27:00,
2013-05-18 11:32:00,72.8,69.4,30.00,NE,43,1.0,1.0,89,0.00,,,0.11,Wunderground v.1.15,2013-05-18 16:32:00,
2013-05-18 11:39:00,73.3,69.5,30.00,NE,45,1.0,3.0,88,0.00,,,0.11,Wunderground v.1.15,2013-05-18 16:39:00,
2013-05-18 11:44:00,73.4,69.6,30.00,NW,324,1.0,2.0,88,0.00,,,0.11,Wunderground v.1.15,2013-05-18 16:44:00,
2013-05-18 11:50:00,73.8,69.7,30.00,NE,36,1.0,1.0,87,0.00,,,0.11,Wunderground v.1.15,2013-05-18 16:50:00,
2013-05-18 11:55:00,74.2,69.4,30.00,NNW,341,2.0,3.0,85,0.00,,,0.11,Wunderground v.1.15,2013-05-18 16:55:00,
2013-05-18 12:01:00,74.0,69.2,30.00,ENE,69,2.0,3.0,85,0.00,,,0.11,Wunderground v.1.15,2013-05-18 17:01:00,
2013-05-18 12:06:00,73.9,69.4,30.00,NE,50,2.0,4.0,86,0.00,,,0.11,Wunderground v.1.15,2013-05-18 17:06:00,
2013-05-18 12:12:00,73.9,69.1,30.00,WNW,285,2.0,3.0,85,0.00,,,0.11,Wunderground v.1.15,2013-05-18 17:12:00,
2013-05-18 12:17:00,73.7,68.6,30.00,NNE,12,2.0,3.0,84,0.00,,,0.11,Wunderground v.1.15,2013-05-18 17:17:00,
2013-05-18 12:22:00,73.7,69.2,30.00,NE,46,2.0,2.0,86,0.00,,,0.11,Wunderground v.1.15,2013-05-18 17:22:00,
2013-05-18 12:28:00,73.8,69.0,29.99,ENE,66,1.0,5.0,85,0.00,,,0.11,Wunderground v.1.15,2013-05-18 17:28:00,
2013-05-18 12:33:00,73.9,69.1,29.99,NNW,330,1.0,2.0,85,0.00,,,0.11,Wunderground v.1.15,2013-05-18 17:33:00,
2013-05-18 12:39:00,74.9,69.4,29.99,ENE,74,1.0,2.0,83,0.00,,,0.11,Wunderground v.1.15,2013-05-18 17:39:00,
2013-05-18 12:44:00,76.2,70.7,29.99,NNW,339,1.0,2.0,83,0.00,,,0.11,Wunderground v.1.15,2013-05-18 17:44:00,
2013-05-18 12:49:00,77.0,69.2,29.99,NE,53,2.0,2.0,77,0.00,,,0.11,Wunderground v.1.15,2013-05-18 17:49:00,
2013-05-18 12:55:00,76.6,70.0,29.99,ENE,58,2.0,2.0,80,0.00,,,0.11,Wunderground v.1.15,2013-05-18 17:55:00,
2013-05-18 13:00:00,75.8,69.2,29.99,NE,55,1.0,2.0,80,0.00,,,0.11,Wunderground v.1.15,2013-05-18 18:00:00,
2013-05-18 13:06:00,75.1,68.9,29.99,NNE,16,1.0,2.0,81,0.00,,,0.11,Wunderground v.1.15,2013-05-18 18:06:00,
2013-05-18 13:11:00,74.7,69.2,29.99,North,10,2.0,3.0,83,0.00,,,0.11,Wunderground v.1.15,2013-05-18 18:11:00,
2013-05-18 13:17:00,74.5,69.0,29.99,NE,36,2.0,3.0,83,0.00,,,0.11,Wunderground v.1.15,2013-05-18 18:17:00,
2013-05-18 13:22:00,74.5,69.3,29.98,NW,314,2.0,2.0,84,0.00,,,0.11,Wunderground v.1.15,2013-05-18 18:22:00,
2013-05-18 13:28:00,75.6,70.1,29.98,NNW,344,2.0,2.0,83,0.00,,,0.11,Wunderground v.1.15,2013-05-18 18:28:00,
2013-05-18 13:33:00,76.1,70.2,29.98,North,356,2.0,2.0,82,0.00,,,0.11,Wunderground v.1.15,2013-05-18 18:33:00,
2013-05-18 13:39:00,76.6,70.3,29.98,North,356,2.0,3.0,81,0.00,,,0.11,Wunderground v.1.15,2013-05-18 18:39:00,
2013-05-18 13:44:00,77.6,70.6,29.98,North,1,2.0,4.0,79,0.00,,,0.11,Wunderground v.1.15,2013-05-18 18:44:00,
2013-05-18 13:49:00,77.1,70.8,29.98,NNE,29,2.0,2.0,81,0.00,,,0.11,Wunderground v.1.15,2013-05-18 18:49:00,
2013-05-18 13:55:00,76.8,69.4,29.97,North,351,2.0,4.0,78,0.00,,,0.11,Wunderground v.1.15,2013-05-18 18:55:00,
2013-05-18 14:00:00,77.4,70.4,29.97,WNW,303,3.0,3.0,79,0.00,,,0.11,Wunderground v.1.15,2013-05-18 19:00:00,
2013-05-18 14:06:00,77.5,70.8,29.97,NNE,15,2.0,3.0,80,0.00,,,0.11,Wunderground v.1.15,2013-05-18 19:06:00,
2013-05-18 14:11:00,77.3,70.6,29.97,NE,40,2.0,3.0,80,0.00,,,0.11,Wunderground v.1.15,2013-05-18 19:11:00,
2013-05-18 14:17:00,76.8,69.8,29.97,NE,50,2.0,3.0,79,0.00,,,0.11,Wunderground v.1.15,2013-05-18 19:17:00,
2013-05-18 14:22:00,76.7,70.1,29.97,North,349,2.0,2.0,80,0.00,,,0.11,Wunderground v.1.15,2013-05-18 19:22:00,
2013-05-18 14:27:00,77.2,70.9,29.96,North,356,2.0,3.0,81,0.00,,,0.11,Wunderground v.1.15,2013-05-18 19:27:00,
2013-05-18 14:33:00,78.2,70.4,29.96,North,352,2.0,2.0,77,0.00,,,0.11,Wunderground v.1.15,2013-05-18 19:33:00,
2013-05-18 14:38:00,78.5,69.9,29.96,ENE,62,2.0,3.0,75,0.00,,,0.11,Wunderground v.1.15,2013-05-18 19:38:00,
2013-05-18 14:44:00,78.0,70.6,29.96,North,8,2.0,3.0,78,0.00,,,0.11,Wunderground v.1.15,2013-05-18 19:44:00,
2013-05-18 14:49:00,78.4,70.6,29.96,East,86,2.0,3.0,77,0.00,,,0.11,Wunderground v.1.15,2013-05-18 19:49:00,
2013-05-18 14:54:00,78.4,70.6,29.96,NE,41,2.0,2.0,77,0.00,,,0.11,Wunderground v.1.15,2013-05-18 19:54:00,
2013-05-18 15:00:00,78.5,70.3,29.96,NNE,20,1.0,2.0,76,0.00,,,0.11,Wunderground v.1.15,2013-05-18 20:00:00,
2013-05-18 15:05:00,78.5,71.4,29.96,NNE,15,2.0,4.0,79,0.00,,,0.11,Wunderground v.1.15,2013-05-18 20:05:00,
2013-05-18 15:11:00,78.6,70.4,29.95,NNE,13,2.0,2.0,76,0.00,,,0.11,Wunderground v.1.15,2013-05-18 20:11:00,
2013-05-18 15:16:00,78.6,70.0,29.95,NNE,25,2.0,3.0,75,0.00,,,0.11,Wunderground v.1.15,2013-05-18 20:16:00,
2013-05-18 15:22:00,78.1,69.5,29.95,ENE,64,2.0,4.0,75,0.00,,,0.11,Wunderground v.1.15,2013-05-18 20:22:00,
2013-05-18 15:28:00,78.0,69.4,29.95,NNW,348,2.0,4.0,75,0.00,,,0.11,Wunderground v.1.15,2013-05-18 20:28:00,
2013-05-18 15:33:00,78.1,69.1,29.95,NNW,342,2.0,4.0,74,0.00,,,0.11,Wunderground v.1.15,2013-05-18 20:33:00,
2013-05-18 15:39:00,78.5,70.3,29.95,West,267,1.0,4.0,76,0.00,,,0.11,Wunderground v.1.15,2013-05-18 20:39:00,
2013-05-18 15:44:00,78.8,71.0,29.95,NE,45,1.0,3.0,77,0.00,,,0.11,Wunderground v.1.15,2013-05-18 20:44:00,
2013-05-18 15:49:00,78.7,71.3,29.95,ENE,57,1.0,3.0,78,0.00,,,0.11,Wunderground v.1.15,2013-05-18 20:49:00,
2013-05-18 15:55:00,78.3,70.9,29.95,ENE,68,1.0,1.0,78,0.00,,,0.11,Wunderground v.1.15,2013-05-18 20:55:00,
2013-05-18 16:00:00,77.9,70.5,29.95,NNE,15,1.0,1.0,78,0.00,,,0.11,Wunderground v.1.15,2013-05-18 21:00:00,
2013-05-18 16:06:00,77.4,70.4,29.95,NNE,30,1.0,2.0,79,0.00,,,0.11,Wunderground v.1.15,2013-05-18 21:06:00,
2013-05-18 16:11:00,77.1,71.2,29.95,NNE,29,0.0,1.0,82,0.00,,,0.11,Wunderground v.1.15,2013-05-18 21:11:00,
2013-05-18 16:16:00,76.8,71.2,29.94,NNE,19,0.0,1.0,83,0.00,,,0.12,Wunderground v.1.15,2013-05-18 21:16:00,
2013-05-18 16:22:00,77.1,71.5,29.94,NNE,19,0.0,1.0,83,0.00,,,0.12,Wunderground v.1.15,2013-05-18 21:22:00,
2013-05-18 16:27:00,77.1,71.9,29.94,ENE,65,0.0,1.0,84,0.00,,,0.12,Wunderground v.1.15,2013-05-18 21:27:00,
2013-05-18 16:32:00,76.9,70.6,29.94,ENE,62,1.0,2.0,81,0.00,,,0.12,Wunderground v.1.15,2013-05-18 21:32:00,
2013-05-18 16:38:00,76.8,71.6,29.94,NE,38,0.0,2.0,84,0.00,,,0.12,Wunderground v.1.15,2013-05-18 21:38:00,
2013-05-18 16:43:00,76.6,71.0,29.94,North,9,0.0,1.0,83,0.00,,,0.12,Wunderground v.1.15,2013-05-18 21:43:00,
2013-05-18 16:49:00,76.3,70.4,29.94,NE,37,1.0,2.0,82,0.00,,,0.12,Wunderground v.1.15,2013-05-18 21:49:00,
2013-05-18 16:54:00,76.4,70.5,29.94,ENE,57,1.0,2.0,82,0.00,,,0.12,Wunderground v.1.15,2013-05-18 21:54:00,
2013-05-18 16:59:00,76.6,70.3,29.94,NE,39,1.0,2.0,81,0.00,,,0.12,Wunderground v.1.15,2013-05-18 21:59:00,
2013-05-18 17:05:00,76.9,71.0,29.94,North,355,1.0,3.0,82,0.00,,,0.12,Wunderground v.1.15,2013-05-18 22:05:00,
2013-05-18 17:10:00,77.4,70.7,29.94,NNE,14,1.0,1.0,80,0.00,,,0.12,Wunderground v.1.15,2013-05-18 22:10:00,
2013-05-18 17:16:00,78.0,69.8,29.94,ENE,71,1.0,3.0,76,0.00,,,0.12,Wunderground v.1.15,2013-05-18 22:16:00,
2013-05-18 17:21:00,78.3,70.1,29.94,NE,53,1.0,2.0,76,0.00,,,0.12,Wunderground v.1.15,2013-05-18 22:21:00,
2013-05-18 17:26:00,78.2,70.8,29.94,NNW,337,1.0,2.0,78,0.00,,,0.12,Wunderground v.1.15,2013-05-18 22:26:00,
2013-05-18 17:32:00,77.9,70.5,29.94,North,355,1.0,3.0,78,0.00,,,0.12,Wunderground v.1.15,2013-05-18 22:32:00,
2013-05-18 17:37:00,77.6,70.2,29.94,NNE,13,2.0,3.0,78,0.00,,,0.12,Wunderground v.1.15,2013-05-18 22:37:00,
2013-05-18 17:43:00,77.3,70.3,29.94,NE,46,1.0,2.0,79,0.00,,,0.12,Wunderground v.1.15,2013-05-18 22:43:00,
2013-05-18 17:48:00,76.8,70.5,29.94,NE,51,1.0,2.0,81,0.00,,,0.12,Wunderground v.1.15,2013-05-18 22:48:00,
2013-05-18 17:53:00,76.4,69.8,29.94,North,354,1.0,2.0,80,0.00,,,0.12,Wunderground v.1.15,2013-05-18 22:53:00,
2013-05-18 17:59:00,76.2,69.9,29.94,ENE,57,1.0,2.0,81,0.00,,,0.12,Wunderground v.1.15,2013-05-18 22:59:00,
2013-05-18 18:04:00,76.2,69.9,29.94,NW,306,1.0,3.0,81,0.00,,,0.12,Wunderground v.1.15,2013-05-18 23:04:00,
2013-05-18 18:09:00,76.1,69.5,29.94,North,6,3.0,4.0,80,0.00,,,0.12,Wunderground v.1.15,2013-05-18 23:09:00,
2013-05-18 18:15:00,76.0,69.7,29.94,NNE,26,3.0,4.0,81,0.00,,,0.12,Wunderground v.1.15,2013-05-18 23:15:00,
2013-05-18 18:20:00,75.9,69.6,29.94,NNE,23,2.0,2.0,81,0.00,,,0.12,Wunderground v.1.15,2013-05-18 23:20:00,
2013-05-18 18:26:00,75.7,69.8,29.94,North,2,2.0,4.0,82,0.00,,,0.12,Wunderground v.1.15,2013-05-18 23:26:00,
2013-05-18 18:31:00,75.5,69.6,29.94,North,8,1.0,2.0,82,0.00,,,0.12,Wunderground v.1.15,2013-05-18 23:31:00,
2013-05-18 18:37:00,75.2,69.7,29.94,NNE,27,1.0,3.0,83,0.00,,,0.12,Wunderground v.1.15,2013-05-18 23:37:00,
2013-05-18 18:43:00,75.0,69.8,29.95,NE,39,1.0,2.0,84,0.00,,,0.12,Wunderground v.1.15,2013-05-18 23:43:00,
2013-05-18 18:48:00,75.1,69.9,29.94,NE,51,1.0,2.0,84,0.00,,,0.12,Wunderground v.1.15,2013-05-18 23:48:00,
2013-05-18 18:54:00,75.1,70.3,29.95,NE,37,1.0,1.0,85,0.00,,,0.12,Wunderground v.1.15,2013-05-18 23:54:00,
2013-05-18 18:59:00,75.1,70.3,29.95,NE,37,1.0,1.0,85,0.00,,,0.12,Wunderground v.1.15,2013-05-18 23:59:00,
2013-05-18 19:04:00,75.0,70.2,29.95,NNE,28,1.0,1.0,85,0.00,,,0.12,Wunderground v.1.15,2013-05-19 00:04:00,
2013-05-18 19:10:00,74.8,70.3,29.94,ENE,68,0.0,1.0,86,0.00,,,0.12,Wunderground v.1.15,2013-05-19 00:10:00,
2013-05-18 19:15:00,74.6,70.5,29.94,NE,48,0.0,1.0,87,0.00,,,0.12,Wunderground v.1.15,2013-05-19 00:15:00,
2013-05-18 19:20:00,74.2,70.1,29.95,ENE,71,0.0,0.0,87,0.00,,,0.12,Wunderground v.1.15,2013-05-19 00:20:00,
2013-05-18 19:26:00,74.0,70.2,29.95,ENE,71,0.0,0.0,88,0.00,,,0.12,Wunderground v.1.15,2013-05-19 00:26:00,
2013-05-18 19:31:00,73.7,69.9,29.95,ENE,68,0.0,0.0,88,0.00,,,0.12,Wunderground v.1.15,2013-05-19 00:31:00,
2013-05-18 19:37:00,73.5,70.1,29.95,North,356,0.0,0.0,89,0.00,,,0.12,Wunderground v.1.15,2013-05-19 00:37:00,
2013-05-18 19:42:00,73.3,70.2,29.96,North,358,0.0,0.0,90,0.00,,,0.12,Wunderground v.1.15,2013-05-19 00:42:00,
2013-05-18 19:47:00,73.3,69.9,29.96,North,359,1.0,2.0,89,0.00,,,0.12,Wunderground v.1.15,2013-05-19 00:47:00,
2013-05-18 19:53:00,73.3,69.9,29.96,NE,54,1.0,1.0,89,0.00,,,0.12,Wunderground v.1.15,2013-05-19 00:53:00,
2013-05-18 19:58:00,73.3,69.9,29.96,North,355,1.0,2.0,89,0.00,,,0.12,Wunderground v.1.15,2013-05-19 00:58:00,
2013-05-18 20:03:00,73.2,69.8,29.96,NNE,12,1.0,2.0,89,0.00,,,0.12,Wunderground v.1.15,2013-05-19 01:03:00,
2013-05-18 20:09:00,73.1,69.7,29.96,NNE,16,1.0,2.0,89,0.00,,,0.12,Wunderground v.1.15,2013-05-19 01:09:00,
2013-05-18 20:14:00,73.0,69.6,29.96,North,3,1.0,1.0,89,0.00,,,0.12,Wunderground v.1.15,2013-05-19 01:14:00,
2013-05-18 20:19:00,73.0,69.9,29.96,North,3,1.0,4.0,90,0.00,,,0.12,Wunderground v.1.15,2013-05-19 01:19:00,
2013-05-18 20:25:00,72.8,69.7,29.96,NNE,32,1.0,3.0,90,0.00,,,0.12,Wunderground v.1.15,2013-05-19 01:25:00,
2013-05-18 20:30:00,72.7,69.6,29.96,NNE,32,1.0,1.0,90,0.00,,,0.12,Wunderground v.1.15,2013-05-19 01:30:00,
2013-05-18 20:36:00,72.6,69.5,29.96,North,10,1.0,1.0,90,0.00,,,0.12,Wunderground v.1.15,2013-05-19 01:36:00,
2013-05-18 20:41:00,72.5,69.4,29.96,NNE,30,1.0,1.0,90,0.00,,,0.12,Wunderground v.1.15,2013-05-19 01:41:00,
2013-05-18 20:46:00,72.4,69.6,29.96,NNE,15,1.0,2.0,91,0.00,,,0.12,Wunderground v.1.15,2013-05-19 01:46:00,
2013-05-18 20:52:00,72.3,69.5,29.96,NNE,12,1.0,1.0,91,0.00,,,0.12,Wunderground v.1.15,2013-05-19 01:52:00,
2013-05-18 20:57:00,72.2,69.4,29.97,NNE,21,1.0,2.0,91,0.00,,,0.12,Wunderground v.1.15,2013-05-19 01:57:00,
2013-05-18 21:02:00,72.0,69.2,29.97,NE,36,1.0,1.0,91,0.00,,,0.12,Wunderground v.1.15,2013-05-19 02:02:00,
2013-05-18 21:08:00,71.9,69.1,29.97,NNE,13,1.0,1.0,91,0.00,,,0.12,Wunderground v.1.15,2013-05-19 02:08:00,
2013-05-18 21:13:00,71.8,69.3,29.97,NNW,336,1.0,1.0,92,0.00,,,0.12,Wunderground v.1.15,2013-05-19 02:13:00,
2013-05-18 21:19:00,71.7,69.3,29.97,North,6,1.0,2.0,92,0.00,,,0.12,Wunderground v.1.15,2013-05-19 02:19:00,
2013-05-18 21:24:00,71.6,69.2,29.97,NNE,24,1.0,1.0,92,0.00,,,0.12,Wunderground v.1.15,2013-05-19 02:24:00,
2013-05-18 21:30:00,71.4,69.0,29.97,North,349,0.0,0.0,92,0.00,,,0.12,Wunderground v.1.15,2013-05-19 02:30:00,
2013-05-18 21:35:00,71.3,68.9,29.97,NNE,13,1.0,1.0,92,0.00,,,0.12,Wunderground v.1.15,2013-05-19 02:35:00,
2013-05-18 21:40:00,71.3,68.9,29.97,NNW,335,1.0,1.0,92,0.00,,,0.12,Wunderground v.1.15,2013-05-19 02:40:00,
2013-05-18 21:46:00,71.2,69.1,29.97,NE,50,1.0,3.0,93,0.00,,,0.12,Wunderground v.1.15,2013-05-19 02:46:00,
2013-05-18 21:52:00,71.2,69.1,29.97,NNE,29,1.0,2.0,93,0.00,,,0.12,Wunderground v.1.15,2013-05-19 02:52:00,
2013-05-18 21:58:00,71.1,69.0,29.97,NE,41,1.0,2.0,93,0.00,,,0.12,Wunderground v.1.15,2013-05-19 02:58:00,
2013-05-18 22:03:00,71.0,68.9,29.97,NE,34,1.0,2.0,93,0.00,,,0.12,Wunderground v.1.15,2013-05-19 03:03:00,
2013-05-18 22:09:00,71.2,69.1,29.97,NE,43,1.0,4.0,93,0.00,,,0.12,Wunderground v.1.15,2013-05-19 03:09:00,
2013-05-18 22:14:00,71.3,69.2,29.97,NNE,15,1.0,2.0,93,0.00,,,0.12,Wunderground v.1.15,2013-05-19 03:14:00,
2013-05-18 22:19:00,71.3,69.2,29.97,NNW,339,1.0,2.0,93,0.00,,,0.12,Wunderground v.1.15,2013-05-19 03:19:00,
2013-05-18 22:25:00,71.4,69.0,29.98,ENE,65,1.0,3.0,92,0.00,,,0.12,Wunderground v.1.15,2013-05-19 03:25:00,
2013-05-18 22:30:00,71.4,69.3,29.98,North,8,1.0,1.0,93,0.00,,,0.12,Wunderground v.1.15,2013-05-19 03:30:00,
2013-05-18 22:36:00,71.4,69.3,29.98,ENE,64,1.0,3.0,93,0.00,,,0.12,Wunderground v.1.15,2013-05-19 03:36:00,
2013-05-18 22:41:00,71.4,69.0,29.98,North,9,1.0,3.0,92,0.00,,,0.12,Wunderground v.1.15,2013-05-19 03:41:00,
2013-05-18 22:47:00,71.5,69.1,29.98,North,5,1.0,3.0,92,0.00,,,0.12,Wunderground v.1.15,2013-05-19 03:47:00,
2013-05-18 22:52:00,71.5,69.1,29.98,NNE,27,1.0,2.0,92,0.00,,,0.12,Wunderground v.1.15,2013-05-19 03:52:00,
2013-05-18 22:58:00,71.3,68.9,29.98,North,2,1.0,2.0,92,0.00,,,0.12,Wunderground v.1.15,2013-05-19 03:58:00,
2013-05-18 23:01:00,71.2,68.8,29.98,North,4,1.0,1.0,92,0.00,,,0.12,Wunderground v.1.15,2013-05-19 04:01:00,
2013-05-18 23:02:00,71.2,68.8,29.98,North,3,0.0,1.0,92,0.00,,,0.12,Wunderground v.1.15,2013-05-19 04:02:00,
2013-05-18 23:04:00,71.0,68.9,29.98,North,2,0.0,1.0,93,0.00,,,0.12,Wunderground v.1.15,2013-05-19 04:04:00,
2013-05-18 23:07:00,70.8,68.7,29.98,North,3,0.0,1.0,93,0.00,,,0.12,Wunderground v.1.15,2013-05-19 04:07:00,
2013-05-18 23:09:00,70.7,68.6,29.98,North,4,0.0,1.0,93,0.00,,,0.12,Wunderground v.1.15,2013-05-19 04:09:00,
2013-05-18 23:14:00,70.5,68.7,29.98,NE,39,0.0,1.0,94,0.00,,,0.12,Wunderground v.1.15,2013-05-19 04:14:00,
2013-05-18 23:19:00,70.4,68.6,29.98,North,10,0.0,0.0,94,0.00,,,0.12,Wunderground v.1.15,2013-05-19 04:19:00,
2013-05-18 23:25:00,70.3,68.5,29.98,North,9,0.0,1.0,94,0.00,,,0.12,Wunderground v.1.15,2013-05-19 04:25:00,
2013-05-18 23:30:00,70.1,68.3,29.98,North,9,0.0,0.0,94,0.00,,,0.12,Wunderground v.1.15,2013-05-19 04:30:00,
2013-05-18 23:36:00,70.2,68.7,29.97,NNE,33,0.0,1.0,95,0.00,,,0.12,Wunderground v.1.15,2013-05-19 04:36:00,
2013-05-18 23:41:00,70.1,68.6,29.97,North,359,0.0,0.0,95,0.00,,,0.12,Wunderground v.1.15,2013-05-19 04:41:00,
2013-05-18 23:46:00,70.0,68.5,29.97,North,359,0.0,0.0,95,0.00,,,0.12,Wunderground v.1.15,2013-05-19 04:46:00,
2013-05-18 23:52:00,69.9,68.4,29.97,North,358,0.0,0.0,95,0.00,,,0.12,Wunderground v.1.15,2013-05-19 04:52:00,
2013-05-18 23:57:00,69.7,68.2,29.97,North,11,0.0,0.0,95,0.00,,,0.12,Wunderground v.1.15,2013-05-19 04:57:00,